CAPE
1849 1749 727 1809 1960 2013 1865 1761 1841 1966 2013 2306 2556 2539 2618 2632 2576 2450 2234 2156 2165 2222 2074 1906 1724 1611 1457 1463 1388 1400 1343 1423 1373 1410 1674 1565 1348 1544 1574 1609 1492 1406 1489 1589 1479 1626 1615 1462 1576 1683 1620 1502 1386 938 988 1014 933 932 1252 1535 1494 1499 1440 1217 730 584 770 773 674 588 553 509 454 114 546 354 212 185 289 274 149 5 91 0 0
2122 1662 848 1359 1800 1948 1836 1793 1898 2014 1944 2168 2204 2254 2464 2566 2529 2465 2410 2314 2345 2183 1967 1839 1659 1432 1323 1276 1308 1278 1244 1278 1286 1474 1550 1489 1323 1324 1454 1464 1419 1593 1636 1684 1552 1475 1469 1459 1443 1400 1459 1432 1364 1097 1050 947 1124 1050 1008 1154 1378 1392 1213 1088 948 827 800 691 571 587 564 620 628 381 145 129 98 126 94 114 3 6 0 0 8
1940 1733 682 1335 1808 1893 1845 1810 1903 2024 2088 2092 2161 2290 2443 2417 2298 2148 2309 2277 2232 1986 1786 1607 1429 1271 1246 1294 1201 1207 1189 1169 1147 1266 1552 1482 1280 1253 1329 1481 1684 1684 1697 1620 1516 1411 1258 1487 1531 1548 1406 1291 1230 1144 1015 954 1164 1092 942 1026 1223 1250 1015 846 793 765 685 733 718 543 489 471 421 396 409 337 249 170 520 252 29 24 0 3 2
2000 1917 1258 1806 1810 1819 1902 1876 1979 2027 2077 2037 2132 2318 2323 2202 1987 2094 2169 2126 2074 1882 1724 1555 1288 1203 1274 1299 1190 1211 1241 1270 1218 1110 1108 1425 1253 1192 1276 1388 1506 1685 1518 1287 1380 1360 1328 1344 1432 1339 1211 1297 1266 1100 969 913 1103 998 938 1200 1193 1017 852 1008 1142 1036 679 736 689 786 566 405 370 428 468 440 262 364 297 236 6 0 0 1 0
1941 1902 1639 1539 1338 1712 1830 1870 1966 1929 2040 2017 2079 2226 2230 2226 1942 2053 2103 1975 1861 1682 1529 1377 1249 1202 1274 1226 1166 1275 1265 1235 1347 1160 1220 1276 1320 1125 1107 1075 1200 1407 1406 1333 1243 1364 1232 1294 1324 1342 1271 1222 1096 999 952 999 1052 999 938 1017 1094 1035 892 929 1041 880 872 713 806 724 617 466 511 543 527 509 395 385 361 332 45 1 8 0 0
1926 1928 1242 1242 1060 1538 1742 1918 1939 1918 1972 2023 2113 2108 2057 2094 2053 2062 2041 1941 1817 1678 1549 1440 1351 1312 1192 1134 1265 1375 1336 1247 1352 1410 1382 1550 1575 1476 1175 1129 1071 946 958 999 1096 1282 1499 1417 1347 1364 1288 1170 1085 1054 1206 976 892 1042 930 965 862 814 810 788 915 829 796 770 685 719 696 605 451 452 232 200 340 344 293 256 271 126 15 3 1
1806 1884 1322 1171 1235 1517 1774 1906 1941 1943 1940 1997 1975 1979 1978 2044 2045 1992 1998 1936 1855 1739 1544 1385 1236 1092 1030 1265 1472 1486 1438 1494 1537 1460 1622 1794 1714 1533 1305 1277 1237 1026 944 1033 1180 1408 1308 1350 1370 1335 1275 1162 1160 1189 1033 910 977 1039 942 916 845 788 723 843 774 741 821 1264 996 944 889 729 630 474 426 498 437 380 402 378 328 134 104 35 10
1828 1802 1592 1441 1457 1876 1903 1897 1926 1958 1948 1853 1932 1903 1928 1966 1969 1890 1889 1890 1749 1576 1416 1331 1198 1111 1302 1608 1722 1678 1606 1618 1564 1577 1917 1871 1797 1774 1545 1216 1297 1282 1326 1451 1507 1299 1258 1232 1259 1257 1278 1272 1250 1021 827 841 1060 1010 990 909 811 726 726 713 730 719 618 1086 1014 1078 901 872 670 361 615 714 484 336 437 556 423 172 60 48 12
1445 1591 1784 1577 1620 1674 1960 1928 1904 1961 1871 1773 1784 1856 1958 1892 1880 1789 1644 1617 1612 1481 1411 1426 1408 1565 1767 1681 1602 1609 1563 1493 1548 1852 2027 1956 1826 1971 1822 1688 1562 1468 1469 1526 1467 1511 1256 1292 1387 1351 1267 1309 1129 971 894 1016 1099 1083 1106 1318 1312 767 634 666 657 794 1479 1145 1018 1039 1026 1031 866 662 624 438 418 323 662 585 488 167 64 15 8
1264 1499 1796 1875 1800 2012 1924 1915 1915 1974 1828 1690 1685 1671 1738 1665 1544 1786 1737 1702 1588 1512 1578 1686 1859 1774 1703 1585 1597 1429 1441 1340 1651 1972 2097 2235 2157 1730 1605 1504 1468 1410 1403 1382 1352 1200 1243 1203 1396 1311 1532 1361 1177 1364 1502 1486 1509 1479 1478 1489 1382 1332 922 653 652 865 1100 1104 1024 1123 941 2010 807 694 537 272 133 542 632 554 545 186 83 30 0
1688 1541 1825 1918 1833 1881 1788 1885 1947 1854 1912 1774 1660 1758 1713 1676 1586 1718 1770 1781 1649 1659 2013 2038 1960 1918 1773 1686 1658 1437 1304 1566 1588 1743 2153 2320 2230 1890 1597 1465 1581 1560 1504 1400 1282 1175 1214 1259 1402 1724 1660 1497 1417 1322 1225 1200 1273 1203 1231 1282 1261 1232 1369 1012 786 1238 1066 869 773 415 388 1021 916 634 499 493 738 466 435 389 394 253 20 26 13
1865 1885 1750 1902 2012 1876 1820 1888 2014 1952 1709 1772 1842 1893 1897 1858 1766 1821 1902 1838 1913 2090 2135 2131 2047 1754 1599 1717 1555 1456 1212 1300 1559 1320 1999 2328 2145 2022 1814 1713 1742 1653 1522 1500 1379 1310 1701 1748 1636 1546 1445 1309 1171 1265 1262 1261 1192 1172 1105 1293 1371 1241 1130 1493 1436 1292 1337 1229 1178 1228 1076 1018 786 723 727 619 544 496 492 348 126 302 294 29 18
1759 1739 2109 1789 1634 1957 1941 1978 1916 1867 1846 1830 1893 1956 2035 2018 1843 1894 1990 2139 2270 2247 2094 2118 2140 1941 1872 1652 1632 1565 1509 1463 1584 1718 2224 2192 2143 2136 1993 1783 1629 1586 1480 1448 1367 1316 1409 1485 1349 1280 1200 1177 1090 1116 1129 1193 1179 1269 1351 1408 1400 1398 941 1418 1493 1275 1338 1260 1165 1100 898 1162 770 543 597 580 561 437 407 421 392 248 60 74 76
1859 2138 2185 2130 1875 1950 1963 2002 1895 1925 1947 1838 1934 2110 2131 2074 1921 2072 2166 2248 2375 2344 2222 2156 2185 1987 1777 1839 1658 1516 1642 1722 1798 2028 2151 2081 1893 1917 1853 1695 1694 1430 1377 1344 1310 1376 1195 1148 1219 1143 1025 908 1140 1150 1183 1259 1438 1409 1470 1652 1405 1293 1173 1718 1404 1313 1330 1206 1341 1211 1225 1014 752 693 538 539 617 541 464 605 636 447 228 39 6
2106 2161 2528 2087 1895 1471 1802 1878 1744 1835 1871 1964 1998 2002 1983 1974 2020 1992 1907 2193 2089 2300 2149 2020 1992 1952 1821 1850 1800 1610 1771 1765 1794 1785 2018 1922 1824 1911 1912 1737 1532 1460 1339 1396 1256 1023 1063 1081 1048 972 895 962 993 1018 1028 1230 1410 1436 1434 1546 1427 1216 1254 1192 1141 1341 1369 1080 1100 890 1168 868 810 911 594 601 577 447 458 454 418 286 119 125 124
2348 2747 2466 2141 1818 1469 1508 1658 1664 1695 1784 1835 1865 1859 1554 1556 1828 1885 1926 2270 2381 2043 1949 1814 1863 1830 1925 2029 1968 1781 1760 1801 1818 1884 1868 1811 1707 1472 1598 1455 1388 1357 1369 1339 1098 1146 1202 1089 1191 1134 1065 987 954 962 913 894 1068 1145 1200 1458 1307 1259 1574 1606 1423 1374 1410 1349 1139 1090 1034 765 1018 810 679 611 511 446 491 562 487 249 74 110 133
2070 1473 1880 1567 1859 1624 1357 1370 1485 1519 1544 1697 1608 1166 1005 1129 1079 1060 1344 1842 1825 1697 1642 1547 1625 1892 1959 1966 1978 1843 1870 1831 1807 1793 1721 1502 1587 1568 1435 1403 1425 1457 1349 1410 1334 1225 1164 1210 1116 1240 1268 1231 1214 1298 1098 1042 1072 999 863 1194 1182 1196 1178 1540 1344 1413 1398 952 1102 1169 1046 848 1019 971 697 615 492 450 365 280 335 503 434 180 106
1743 1528 1460 1344 1448 1947 1729 1657 1298 1503 1104 1281 1336 804 689 939 855 1340 1442 1561 1552 1655 1669 1462 1663 2078 2154 2078 2019 1947 1880 1800 1745 1772 1554 1755 1584 1459 1447 1460 1399 1419 1462 1395 1231 1193 1195 1217 1307 1305 1406 1367 1398 1275 1116 980 1080 1092 797 922 1298 1222 1327 1205 1354 1383 1234 1162 1034 968 1036 1542 1160 964 746 613 489 314 404 423 585 400 150 72 60
1831 2156 1506 1328 1178 1337 1675 1706 1339 1037 1448 1883 1052 932 1163 641 378 1222 1252 1422 1482 1505 1659 1960 2182 2202 2211 2085 2026 1944 1862 1748 1725 1840 1761 1677 1493 1460 1484 1448 1546 1456 1596 1418 1315 1377 1386 1336 1342 1376 1378 1304 1194 889 793 811 938 837 689 958 1342 1307 1252 1556 1318 1246 1067 1256 1056 1017 1197 1276 1572 1041 736 604 517 477 430 542 580 481 336 194 135
1384 1541 2012 1274 1186 1254 1395 1487 1496 1220 1121 1004 1862 1330 963 897 973 1128 1087 1271 1583 1848 2047 2115 2016 1844 1850 2106 2005 1809 1801 1802 1734 1732 1704 1655 1583 1282 1507 1542 1502 1426 1337 1478 1374 1249 1476 1305 1454 1441 1364 1166 736 512 649 608 556 556 509 614 1543 1503 1758 1646 1246 1168 1170 958 950 1085 1083 1349 1224 860 708 644 607 468 452 570 478 361 451 320 181
1338 1201 1549 1230 1621 1722 1730 1414 1403 1284 858 1115 1275 806 1187 708 719 1012 945 1092 1686 1780 1886 1851 1802 1789 2068 2126 1889 1554 1203 1910 1548 1467 1640 1688 1696 1725 1624 1624 1502 1514 1523 1423 1480 1534 1475 1604 1662 1508 1195 903 642 377 566 654 529 474 417 522 798 1700 1408 1296 1366 1216 1271 1045 1002 1150 1233 1147 1074 901 733 642 564 519 537 490 504 624 555 466 278
1739 1079 995 1619 1708 1735 1621 1301 1382 1029 1397 1557 907 780 870 956 930 850 1071 1334 1727 1706 1689 1371 1368 1451 1963 1929 1841 1566 1568 1344 1514 1400 1550 1595 1662 1753 1734 1525 1622 1652 1611 1603 1653 1665 1607 1781 1493 1158 818 867 448 1003 539 550 323 613 409 579 1254 1447 1508 1367 1404 1177 1204 1172 1077 879 1224 1316 980 940 777 649 568 505 562 415 477 616 689 467 298
1221 1039 1351 1788 1903 1795 1673 1122 1272 1324 1497 1318 1061 996 797 778 546 897 1036 932 1322 1634 1611 1661 1888 1634 1584 2002 2176 1587 1073 1512 1516 968 1276 1254 1641 1640 1542 1572 1688 1737 1647 1615 1659 1658 1771 1592 1132 916 960 380 1209 620 560 617 494 425 594 1264 1277 1209 1337 1245 1218 1093 1018 1262 821 1170 1156 1356 1089 965 814 708 564 494 456 419 588 521 439 382 313
1054 1337 1441 1626 1846 1856 1392 894 1468 1172 1475 1028 1123 879 891 983 1174 1348 1078 1255 1185 2177 1887 1554 1813 1471 1492 2156 2194 2012 1666 1149 971 1366 1190 1564 1295 1254 1249 1322 1404 1586 1756 1759 1793 1890 1650 1279 1103 832 916 1030 587 399 435 524 607 668 854 984 955 1116 1393 1364 1010 1114 1122 889 990 1269 1155 1418 1364 936 823 821 630 517 385 517 514 478 342 324 409
1173 1400 1471 1624 1933 1340 1368 1248 1622 1163 1023 1494 1405 1365 1110 1149 964 1145 1805 1268 1592 1140 1514 1511 1813 2272 2088 1949 2066 2152 1931 1203 1698 1659 1512 1142 1198 1518 1006 1585 1316 1700 1673 1964 724 1010 1198 613 694 1329 703 371 310 453 536 606 553 586 680 834 898 998 1100 1067 1048 1209 1215 1052 1260 1347 1168 1499 1436 1001 932 815 617 540 482 445 514 397 275 274 398
1358 1586 1448 1620 1989 848 1557 1649 1479 1320 1399 1729 1405 1278 1208 1383 1178 1083 1611 1884 1664 2116 2376 1793 1984 1957 1776 1413 2253 2129 1672 1018 819 1019 1111 1144 1114 1631 1815 1957 1745 1728 1510 1676 1630 1124 1295 879 690 726 670 446 465 498 561 611 556 478 537 618 753 852 782 1099 1219 1049 1360 1389 1325 1391 1455 1520 1568 1684 999 827 673 591 504 258 390 352 249 322 475
1281 1540 1582 1744 1994 2071 1152 1148 1846 1118 1100 1210 1458 1432 1594 1744 1510 1450 1576 2125 2006 2082 2007 1942 1754 1598 1525 1191 1244 1117 1200 839 902 1422 1316 1859 1674 1831 1907 1944 1752 1644 1958 1842 1849 1801 1482 1062 621 1171 989 693 453 505 537 562 516 464 441 479 578 706 732 778 1122 1212 1140 1412 1639 1369 1520 1527 1627 1681 970 832 688 551 520 332 197 312 190 278 394
1290 1457 1523 1731 1790 2059 1766 869 1595 1780 1354 1088 1163 1588 1997 1945 1537 1645 1644 1903 1903 1669 1673 1677 1560 1565 992 1110 1246 1322 999 772 945 1265 1743 1622 1322 1699 1968 1882 1865 1732 1933 2012 1762 1810 1590 1386 1295 1431 1254 1049 806 574 566 445 431 421 450 388 470 572 666 676 783 1220 1297 1371 1617 1347 1469 1782 1665 1702 1441 836 747 466 491 412 360 348 117 230 513
1465 1521 1562 1703 1794 1864 1728 1051 1078 1596 1715 1617 1532 1800 1948 1920 1670 1574 1596 1721 1479 1423 1353 1475 1686 2008 1837 1325 1408 1124 1110 744 960 888 1464 1047 1482 2018 1905 1922 1899 1843 1919 2019 1931 1901 1974 1495 1752 1556 1456 1260 940 786 507 575 494 445 367 379 378 470 565 628 637 902 1049 1421 1204 1725 1574 1812 1689 1576 1632 845 772 528 473 543 439 366 198 241 237
1581 1519 1846 1961 2017 1842 1544 1658 1740 1831 1696 1841 1852 1794 1865 2087 1901 1564 1758 1667 1498 1585 1571 1612 2083 2035 2002 1985 1826 1581 1634 906 1306 1270 990 1011 1434 1995 2000 1927 1806 1722 1846 1999 1982 1920 2012 1712 1891 1773 1364 1462 1268 1236 941 885 414 426 287 345 359 502 514 526 544 658 803 1401 1320 1746 1694 1790 1668 1433 1335 1005 781 725 450 554 512 379 212 198 196
1649 1590 1744 1944 1873 1689 1391 1477 1314 1517 1854 1940 1979 1734 1470 1745 1740 1716 1768 1531 1744 1490 1719 2080 2134 2101 1956 1890 1505 1406 1381 1575 1413 1435 1490 1410 1696 1991 1836 1794 1847 1906 2039 1968 2031 1962 2066 1882 1885 1717 1778 1494 1868 1638 1117 1198 876 361 310 170 294 512 547 574 587 602 696 856 1409 1664 1730 1763 1702 1356 1268 1182 1096 825 658 543 486 344 374 273 308
1675 1498 1654 1914 1806 1711 1432 1606 1201 1805 1783 1852 1708 1684 1552 1627 1469 1807 1776 1762 1768 1737 2092 2080 2048 1913 1847 1705 1671 1713 1665 1684 1652 1599 1473 1409 1653 1956 1738 1758 2003 2114 2106 2006 1958 1830 1891 1830 2003 2041 2055 1756 1321 1879 1476 1428 1203 654 478 321 261 145 498 606 585 637 676 882 938 1591 1527 1749 1482 1342 1396 1256 1071 1275 1060 544 598 382 274 385 337
1590 1598 1545 1525 1773 1716 1711 1092 1230 1967 1791 1582 1594 1546 1826 1389 1248 1623 1912 1829 1730 1932 1983 2023 1840 1705 1729 1750 1774 1788 1759 1717 1693 1632 1597 1784 1424 1918 1778 1865 2004 2064 2056 2085 2005 2008 1874 1942 1972 2006 2010 2018 1985 1870 1490 1625 1340 1060 828 602 543 315 479 469 538 607 639 694 912 1282 1453 968 1600 1364 1273 1454 1016 1144 1072 1435 663 551 338 252 246
1519 1526 1522 1413 1364 1757 1763 1846 1720 1580 1563 1659 1848 1868 1414 1472 1361 1656 1855 1798 1964 1924 1922 1835 1738 1708 1751 1856 1831 1772 1735 1666 1518 1514 1413 933 1425 1760 1744 1675 1672 1959 1904 1957 1846 1773 1720 1674 1698 1734 1587 1764 1941 2004 1730 1471 1277 1252 1155 816 534 1014 705 406 656 710 820 878 897 1478 1716 1777 1613 1614 1202 1650 1246 1101 886 1158 846 650 549 380 234
1586 1613 1477 1526 1739 1472 1764 1647 1970 1976 1807 1690 2052 1731 1296 1149 1230 1241 1810 2060 2000 1906 1942 1890 1798 1902 1917 1840 1736 1636 1576 1525 1124 1520 1348 1082 1582 1829 1704 1654 1785 1788 1761 1712 1844 1778 1666 1654 1267 835 1500 1716 1762 1766 1637 1650 1428 1167 1311 1536 1043 895 947 618 706 763 664 1140 1460 1464 1715 1556 1179 1276 929 1264 1776 1028 987 838 1351 776 730 508 277
1808 1714 1694 1669 1635 1709 1734 1606 1790 1833 1950 1835 1432 1116 1647 1167 1098 1144 2028 2169 2117 2030 2063 2008 1901 1819 1764 1683 1605 1562 1523 1498 1324 1346 1298 1106 1026 1484 1611 1289 1436 1520 1566 1582 1626 1536 1567 1530 1571 1621 1545 1456 1467 1746 1612 1698 1521 1366 1395 1466 982 924 862 451 829 642 907 1074 1043 2064 1915 1892 1979 1672 1761 1358 1340 1338 820 1018 1375 1222 857 737 466
1842 1712 1694 1877 1740 1784 1237 1506 1831 1775 1330 1647 1504 1331 1305 1915 1880 1916 2134 2227 2185 2258 2151 1969 1871 1978 1900 1726 1784 1695 1562 1504 1445 1434 1458 1387 1014 823 1487 1413 1443 1384 1322 1233 1407 1328 1443 1417 1469 1540 1612 926 1246 1482 1629 1706 1662 1525 1461 1774 1412 1321 1167 1043 1181 1178 796 766 1057 1451 1783 1986 2152 1921 1733 2010 1132 1188 1255 999 1201 1306 1175 1162 927
1833 1866 2040 1902 1758 1408 1576 1490 1572 1525 1933 1633 1112 1243 1295 1406 1822 1986 2130 2219 2236 1672 1481 1420 1765 2222 2115 1890 1823 1703 1688 1601 1523 1381 1370 1301 1008 933 948 1147 1196 1261 1235 1142 1264 1404 1431 1377 1421 1517 1539 1626 1319 1359 1571 1632 1512 1618 1573 1748 1467 1413 1245 1306 1426 1214 1031 823 943 975 1193 1836 2064 2076 2146 2053 1964 1254 1208 1060 1137 941 1025 1047 1260
1722 1882 2101 1961 1941 1918 1558 1360 1222 824 1042 1106 1224 1026 1130 1347 1643 1882 2032 1541 1481 1534 1350 1296 1273 1380 1970 2110 1888 1742 1591 1749 1662 1547 1543 1188 1067 824 853 1384 1235 1361 1377 1269 1048 1342 1533 1381 1351 1384 1589 1560 1592 1683 1798 1757 1702 1640 1554 1636 1633 1301 1285 1445 1372 1525 1322 1139 1326 1225 1418 1912 1854 2066 1717 1607 1970 1831 1019 1053 1244 1215 1030 962 1116
1696 1641 1726 2028 2046 1893 1139 1120 1173 1029 1017 1190 948 799 1215 1386 1592 1263 1160 992 989 1198 1214 1145 1046 988 1209 1281 1568 2033 1938 2021 1924 1849 1683 1571 1456 1447 1434 1254 1195 1254 1280 1023 899 1038 1110 1107 1157 1232 1305 1488 1485 1543 1622 1700 1721 1689 1412 1690 1809 1708 1445 1299 1404 1370 1365 1444 1530 1944 1621 1755 1899 1885 1840 1952 1734 1400 838 1090 1135 810 675 762 984
1626 1501 1828 1768 1843 1180 1185 1187 1105 1065 757 929 851 693 850 1157 1305 1334 1213 1311 991 1044 965 829 522 594 700 715 995 906 1110 1120 1184 1921 1730 1338 1444 1514 1567 1349 1138 1095 1145 1120 1303 1170 1158 1261 1207 1462 1265 1240 1334 1525 1481 1666 1407 1385 1293 1368 1458 1769 1522 1314 1342 1288 1208 1184 1245 1317 1256 1375 1248 1287 1462 1578 1573 1596 804 864 964 783 904 965 939
1574 1303 1318 1491 1136 926 1079 1232 1139 1072 1114 1021 808 686 780 1359 1541 1180 999 981 855 801 755 728 756 756 819 746 798 830 866 871 894 980 666 602 476 452 798 1063 950 1243 1202 1062 1262 1229 1368 1292 1108 1189 1357 1288 1342 1385 1669 1697 1304 820 647 948 641 1423 1602 1351 1369 787 981 941 952 911 905 793 844 1150 1058 1459 1417 1340 1247 1029 940 931 927 730 654
1315 1662 1400 1430 1074 1450 884 1051 908 1139 788 885 430 588 868 1139 1257 1076 874 761 758 733 674 659 605 367 497 468 617 649 469 468 587 513 344 141 106 159 209 470 511 590 587 646 746 765 1458 1586 1249 1282 1442 1529 1388 1515 1765 1354 1198 1167 1244 1294 536 1037 908 1476 1449 1411 1240 1216 1337 1178 966 842 786 908 1275 1413 1338 1504 1245 1279 1312 1192 1195 960 759
1890 1667 1412 1287 1322 1694 1642 1300 1151 1323 1047 1051 667 966 1264 1590 1704 1414 998 832 889 1060 926 759 578 371 404 425 327 387 314 207 206 101 19 156 306 309 306 368 470 570 487 494 596 604 835 1679 1608 1384 1464 1461 1346 1489 1432 1447 1290 1336 1041 949 574 800 644 725 1054 1344 1526 1485 1116 1041 1340 1134 1197 978 1055 1229 1413 1518 1399 1294 1196 1234 1231 1233 1338
2093 1519 1369 1328 1907 1589 2120 1545 1313 1370 1208 1184 1598 1961 1648 1623 1683 1642 1442 1317 1018 843 691 516 418 277 214 276 231 208 158 111 166 131 137 222 181 263 343 417 495 426 289 299 388 504 475 500 649 755 809 1100 1204 1456 1471 1474 1376 1365 1272 996 954 595 671 665 871 920 711 790 1159 1356 1205 1405 1199 1093 933 1101 1199 1317 1248 1124 1166 1094 1048 994 1249
1638 1356 1476 1538 1703 1690 1828 1677 1171 1450 1625 1702 2018 1847 1644 1417 1465 1385 1149 1017 946 799 554 434 389 258 65 90 105 173 168 170 178 145 83 103 145 242 232 103 385 200 156 171 207 450 657 649 813 770 1218 1012 1394 1363 1529 1170 1251 1403 1456 1245 1269 1129 521 762 672 358 482 803 686 555 602 998 1142 1007 1004 918 927 1052 1106 1273 1208 1158 933 858 649
1588 1686 1535 1401 1436 1314 1242 842 638 1459 1471 1792 1957 1815 1570 1447 1524 1362 1204 944 866 832 804 537 355 127 118 123 110 198 86 73 75 63 32 52 124 135 180 68 32 39 67 120 161 346 537 713 712 960 742 1199 1289 1131 1587 1434 1274 1370 1340 1534 1314 1211 1250 1204 800 730 453 373 585 755 790 539 706 628 665 458 494 498 491 595 806 849 771 702 766
1606 1737 1683 1576 1560 1758 929 980 1260 1584 1579 1619 1591 1774 1554 1595 1646 1225 996 823 687 822 834 616 350 125 114 102 101 103 36 16 28 18 14 35 134 123 65 8 0 0 1 6 46 210 401 502 618 834 711 846 1300 1344 1303 1304 1376 1332 1328 1408 1155 1070 1225 1384 1095 732 513 466 277 217 301 346 92 158 32 37 5 49 75 111 259 482 294 471 633
1459 1632 1635 1591 1506 1340 1196 1459 1412 1153 1526 1549 1947 1804 1490 1451 1411 1214 1021 730 778 746 493 228 183 151 125 109 76 22 23 54 12 2 3 2 15 14 2 0 0 0 0 0 23 159 254 186 148 214 464 632 844 1037 1407 1344 1228 1271 1173 763 764 935 912 1191 1505 1200 785 725 604 403 107 2 0 0 0 0 0 0 0 0 0 0 6 34 92
1274 1306 1218 1157 1481 1318 1422 1551 1519 1561 1554 1769 2176 1883 1399 1213 1314 1392 1231 924 732 527 347 240 174 112 106 104 48 22 0 0 0 0 0 0 0 0 0 0 0 0 4 44 80 35 20 16 23 60 334 446 483 650 704 837 769 784 417 520 446 300 332 928 1216 1132 1203 963 769 492 177 57 0 0 0 0 0 3 12 3 0 0 0 0 0
1350 1200 1356 1389 1385 1658 1293 1504 1314 1263 1200 1580 2308 1979 1520 1241 1178 1502 1221 1039 865 658 423 230 94 83 59 46 38 8 0 0 0 0 0 0 0 0 0 0 0 0 0 3 0 0 0 2 5 70 217 189 208 482 415 368 176 159 100 52 29 29 64 136 748 1034 915 742 387 146 0 0 0 0 0 0 2 1 4 6 3 0 0 0 0
Wind_Speed
33 35 35 36 34 34 36 37 36 36 37 35 35 37 38 39 40 40 39 39 37 36 35 35 35 34 34 34 34 32 31 27 25 23 21 22 23 24 25 24 25 24 23 22 21 21 20 19 18 18 18 17 16 15 13 12 10 11 13 14 16 17 16 16 15 15 16 16 17 17 17 15 14 12 14 14 14 13 16 18 13 nan nan nan nan
38 37 36 36 36 36 37 38 38 38 39 38 38 39 39 41 42 41 40 40 39 38 39 36 35 34 35 35 34 33 31 28 25 23 22 21 22 23 24 23 23 23 23 22 20 20 20 18 17 17 17 16 15 14 14 13 13 13 15 15 16 17 17 17 17 16 16 16 17 18 17 16 14 12 11 12 nan 16 nan 18 nan nan nan nan nan
39 37 36 38 39 38 39 40 40 39 38 38 39 39 40 42 44 44 41 41 41 41 39 37 36 35 36 36 35 33 31 28 26 24 22 20 22 23 23 24 23 22 22 21 20 19 19 19 18 17 17 17 15 14 14 13 13 13 14 15 15 16 17 17 16 16 16 17 16 18 18 16 13 12 13 14 14 15 19 19 nan nan nan nan nan
41 38 37 39 40 39 39 40 40 40 39 39 40 40 41 43 46 45 43 42 43 41 38 36 35 35 36 36 35 33 31 30 27 26 25 21 21 22 22 24 23 23 21 20 19 18 17 19 19 18 16 16 15 14 14 14 13 13 14 16 15 15 16 15 14 14 14 16 17 16 12 13 12 12 12 13 15 15 16 17 nan nan nan nan nan
40 39 39 39 40 40 40 41 41 43 40 41 41 41 42 43 45 45 43 44 43 41 37 35 34 35 36 36 35 33 32 31 28 27 27 24 21 22 22 22 23 22 20 20 19 17 17 18 18 17 16 15 16 15 14 14 14 13 14 14 14 15 15 15 14 13 10 9 11 7 12 13 11 12 12 13 14 15 15 16 nan nan nan nan nan
41 41 41 40 41 42 41 42 43 44 42 43 43 43 44 44 45 45 43 44 43 40 35 33 34 34 35 35 34 33 32 31 29 27 28 24 21 21 22 20 19 19 19 19 18 18 17 17 18 17 16 15 16 15 14 14 14 14 14 14 14 14 15 15 13 13 12 10 12 7 10 12 11 10 11 11 14 15 16 16 16 15 nan nan nan
43 42 42 42 41 43 42 43 43 44 45 45 45 45 45 45 46 45 45 44 43 39 35 33 34 35 36 35 33 33 32 31 30 27 26 23 22 21 22 21 20 19 19 19 18 18 17 17 18 17 16 16 17 16 15 14 14 13 14 15 14 14 15 14 12 11 12 12 9 9 9 11 12 10 10 13 13 14 16 17 16 15 16 nan nan
42 41 43 43 41 45 43 44 45 45 46 48 47 47 46 46 47 47 47 46 44 40 36 33 34 35 35 33 32 32 32 32 30 26 24 23 21 19 18 19 19 19 20 20 19 18 17 17 17 17 17 17 17 17 15 14 13 13 14 14 13 12 13 12 10 10 11 5 8 9 9 10 11 10 12 12 11 13 14 15 14 15 nan nan nan
42 42 42 43 44 49 45 46 46 47 48 48 48 48 48 48 49 49 49 48 46 42 37 33 33 34 33 32 32 32 31 31 30 26 23 23 21 23 23 21 20 19 18 19 18 17 18 17 16 17 17 17 18 18 16 14 13 13 15 15 13 12 12 10 8 9 10 9 9 9 10 11 10 11 11 12 11 13 13 12 14 15 nan nan nan
41 42 43 42 46 48 47 47 47 48 48 49 50 51 51 51 52 50 50 48 45 41 37 34 33 35 35 32 33 31 31 30 26 25 24 24 26 26 24 24 23 20 19 20 19 17 18 17 17 16 17 18 19 18 16 15 13 12 11 12 13 11 10 7 7 10 8 10 11 8 7 10 12 11 12 11 10 13 17 23 21 18 nan nan nan
42 41 41 44 49 49 48 48 48 50 49 50 51 51 52 51 51 48 48 45 42 39 35 35 36 36 35 34 32 33 31 30 27 27 25 26 26 25 24 24 23 22 21 20 19 18 17 16 16 18 17 17 18 17 16 14 11 10 11 11 10 9 9 5 8 9 9 11 12 11 11 5 11 11 11 12 13 13 16 16 15 15 nan nan nan
42 42 42 45 51 49 49 48 49 50 53 53 52 51 49 46 44 43 43 40 38 37 36 36 36 38 38 36 33 33 31 27 32 29 26 26 25 24 24 23 23 23 23 21 19 19 20 19 19 19 18 17 17 17 16 14 11 10 10 11 9 8 5 2 3 11 9 11 12 9 9 10 11 11 12 12 12 12 12 12 14 16 15 nan nan
43 43 46 48 49 48 48 48 50 51 51 51 50 49 44 41 41 40 39 36 34 36 38 37 37 39 38 36 33 32 30 28 30 29 28 25 24 24 24 23 23 24 23 22 21 21 19 19 18 18 17 17 16 15 16 16 13 12 11 11 10 7 5 2 3 10 12 12 11 10 11 10 11 11 11 12 12 11 11 12 13 14 nan nan nan
43 46 47 47 47 49 48 48 48 50 50 50 49 45 42 42 44 42 40 38 35 36 38 38 40 41 39 37 35 34 31 29 28 29 28 25 23 24 24 23 24 24 23 22 22 21 20 20 19 18 17 17 16 16 16 19 17 14 13 12 9 7 6 2 2 12 12 13 11 12 11 10 11 11 10 11 11 10 11 12 13 13 13 nan nan
44 46 47 47 47 47 50 48 50 51 50 49 47 46 45 46 46 44 43 39 37 39 40 41 44 43 41 38 37 35 32 29 28 28 28 25 23 23 25 24 24 25 23 23 22 21 21 21 21 20 19 18 18 18 16 20 18 16 14 13 10 8 7 7 10 14 12 13 12 12 13 12 10 8 10 11 10 9 10 10 11 13 13 14 14
46 47 48 45 46 45 45 46 47 47 48 49 49 48 48 47 44 44 41 37 37 39 45 47 47 45 42 39 38 36 33 31 28 29 28 26 24 25 25 25 25 25 24 23 23 23 24 23 23 21 20 21 20 19 16 19 20 18 16 15 12 11 5 5 11 14 13 14 14 13 14 15 7 9 10 11 10 10 10 10 10 12 nan 13 14
46 45 46 46 45 43 42 42 43 46 47 49 48 46 41 43 44 41 36 32 40 42 45 47 47 46 44 40 39 36 33 31 29 29 28 27 26 25 25 26 26 25 24 25 25 25 25 25 24 23 22 22 21 20 19 19 22 22 20 17 15 14 9 8 14 14 15 16 14 13 15 14 10 8 11 11 11 11 9 10 10 12 12 12 12
44 46 45 43 41 41 39 40 41 42 45 46 42 40 38 42 43 34 32 34 38 41 45 47 46 47 44 41 38 34 31 29 28 27 27 27 26 25 26 26 27 26 25 25 26 26 25 25 24 23 23 22 22 22 21 21 23 24 23 19 16 16 11 9 16 17 19 15 17 15 15 19 11 10 11 11 11 11 11 11 10 11 11 nan nan
39 43 43 41 39 37 41 40 39 38 39 36 33 31 33 45 42 37 35 32 35 42 46 45 47 48 46 42 36 31 29 27 27 29 28 27 27 26 26 26 27 26 26 26 25 26 26 25 24 23 23 23 22 22 22 23 24 25 25 23 18 15 12 10 18 19 19 16 17 17 19 17 10 12 13 11 10 12 12 11 11 10 11 11 11
39 37 40 42 41 40 39 37 34 37 32 31 31 31 31 33 34 37 34 30 32 40 44 45 47 46 42 37 31 27 25 25 27 27 28 28 24 25 26 27 27 27 26 26 25 26 27 26 25 23 22 21 21 22 22 23 24 25 25 23 19 14 13 14 19 19 18 21 17 20 22 13 12 16 14 13 12 12 12 12 11 11 10 10 11
38 39 40 39 38 39 39 36 34 33 26 26 29 29 25 28 25 32 27 26 35 40 41 42 41 41 37 32 25 23 22 23 23 25 27 25 27 26 27 27 27 26 26 26 26 27 27 27 25 23 21 20 20 22 23 22 23 24 24 22 18 14 15 18 18 19 20 21 18 25 21 16 14 17 16 15 14 13 11 10 11 12 12 12 12
40 41 40 36 36 37 37 37 28 29 24 23 24 21 23 18 20 20 19 27 33 34 32 32 33 34 33 26 22 20 21 22 23 25 23 26 26 26 26 27 26 27 26 27 27 27 27 28 26 22 19 16 15 17 21 23 23 23 22 19 16 17 19 17 18 20 21 20 24 26 22 16 17 17 16 16 16 14 12 10 12 14 15 14 13
41 39 38 36 34 35 37 32 27 24 24 24 21 23 23 16 18 16 21 24 25 24 25 30 32 29 24 20 17 17 17 21 24 21 21 24 29 26 26 26 26 27 27 27 27 27 28 27 25 20 17 13 12 17 17 20 22 20 17 18 20 19 19 18 18 20 19 23 26 29 22 18 18 18 18 17 17 15 13 13 12 12 13 14 14
41 37 36 33 33 35 33 30 25 26 22 20 20 22 21 21 21 25 23 24 25 25 24 26 27 19 16 16 15 16 19 22 25 27 26 25 27 25 24 25 24 25 26 25 27 27 28 25 22 19 14 13 14 16 17 19 20 20 21 20 20 21 19 19 18 19 21 22 26 29 23 20 16 20 19 19 18 15 15 15 13 11 12 13 14
37 35 32 32 32 35 31 31 28 25 22 22 22 22 25 28 24 22 23 24 26 23 20 19 16 14 14 16 17 17 17 26 25 25 22 22 21 21 22 21 21 21 19 20 22 24 21 20 19 15 15 15 15 16 17 20 19 21 21 20 20 21 21 20 19 20 20 24 29 28 24 21 19 20 22 21 19 16 16 18 17 15 13 13 13
32 29 28 29 28 30 30 30 25 25 23 23 23 24 25 25 22 20 19 21 21 19 17 15 15 13 15 16 21 20 20 25 25 20 20 16 19 20 20 21 19 20 18 19 20 21 19 19 17 17 17 16 17 17 17 18 20 20 21 21 20 20 20 20 21 20 22 25 27 28 25 23 21 20 24 23 20 18 17 17 19 17 14 14 13
24 25 25 24 23 22 27 26 22 24 24 24 23 23 22 21 19 18 17 19 18 16 15 15 16 16 19 24 19 20 21 21 20 21 20 20 20 19 19 19 19 19 19 18 19 20 18 18 17 17 17 16 17 18 16 17 18 21 22 21 20 20 20 20 21 22 23 25 28 27 25 24 22 22 24 24 23 20 19 19 19 19 17 13 15
23 24 24 23 21 20 22 26 22 22 21 22 22 21 20 19 18 17 16 16 14 13 15 17 18 17 21 19 19 18 17 23 17 20 18 18 18 18 19 20 19 18 20 17 19 18 18 18 16 16 15 16 17 16 17 18 18 19 23 21 21 20 20 21 22 22 24 25 28 26 25 24 23 23 22 26 25 22 22 20 21 20 19 16 18
29 24 25 26 24 20 20 23 21 22 19 20 21 20 20 17 15 14 14 13 12 14 17 18 17 17 17 18 17 17 18 21 21 16 18 17 15 17 17 17 18 18 18 17 16 17 17 17 16 15 15 16 16 16 16 17 18 20 21 22 21 21 22 21 22 22 23 25 26 26 25 25 23 23 24 26 26 25 23 25 22 22 20 20 18
27 24 26 26 24 22 22 22 21 21 19 19 21 21 19 15 14 13 15 15 16 17 18 18 18 17 18 18 18 18 17 19 16 21 23 22 17 17 16 16 17 17 17 17 16 15 16 16 15 14 15 15 15 18 16 17 17 21 21 22 24 22 24 22 22 22 24 24 27 27 27 25 24 23 24 24 26 26 26 27 24 23 22 21 18
25 23 24 25 24 22 21 21 21 18 17 19 21 22 20 16 17 17 18 18 19 18 18 18 18 17 17 17 15 14 15 16 18 18 22 23 21 18 17 18 18 18 17 17 17 15 15 14 14 15 14 14 14 14 13 16 17 19 23 22 25 25 24 24 24 24 24 25 26 27 27 26 25 24 25 25 26 26 26 27 26 25 25 23 22
25 27 27 28 27 22 20 20 21 16 16 18 20 21 19 18 17 16 17 17 18 17 17 16 15 14 14 14 14 13 14 16 17 19 20 22 19 19 19 17 17 17 16 16 16 14 14 13 13 13 13 16 11 12 13 15 17 19 21 23 25 26 26 27 24 27 25 26 27 28 27 24 24 25 25 25 27 26 26 25 28 25 27 25 24
25 30 30 30 28 21 18 19 18 20 19 16 17 18 17 16 15 14 16 16 15 15 14 13 13 12 12 12 13 14 16 18 19 20 20 22 18 18 18 17 15 15 15 15 14 14 13 13 12 12 13 14 13 13 12 14 14 17 18 22 23 25 28 29 28 28 27 28 28 27 27 25 23 24 25 26 26 27 29 26 27 27 25 25 25
26 24 26 26 22 17 16 16 17 20 21 18 17 18 17 17 15 15 16 15 15 13 12 11 11 11 13 14 15 17 18 21 21 22 22 20 16 16 16 15 14 11 13 14 13 13 13 12 11 11 14 12 12 13 12 12 12 14 16 17 23 26 25 26 28 28 29 27 29 26 27 27 28 25 23 25 26 29 29 28 28 28 27 26 28
25 22 22 23 18 15 16 15 16 19 19 19 21 21 17 18 17 14 15 14 12 10 11 12 12 13 15 17 18 20 21 23 24 21 23 17 17 16 15 14 12 11 11 12 11 11 10 11 10 10 12 11 11 12 11 13 12 13 17 18 20 20 21 22 25 26 26 27 28 27 27 27 29 25 22 26 28 27 29 29 28 29 29 28 28
22 22 22 21 16 12 12 14 17 20 21 20 24 24 20 17 13 14 15 10 10 12 14 14 15 17 18 20 21 22 22 23 23 21 21 18 18 15 14 13 12 11 10 11 9 9 10 9 9 8 10 10 10 12 11 12 12 13 15 16 17 16 16 18 20 21 24 25 25 28 26 26 28 28 27 31 26 25 27 28 29 31 30 29 28
21 22 22 19 12 8 10 13 16 20 24 27 27 26 21 19 19 16 12 12 13 14 16 17 18 20 21 22 22 22 21 21 20 20 20 18 19 13 14 13 12 12 11 9 9 8 8 8 8 7 9 8 9 11 12 12 13 13 14 14 15 15 15 17 18 19 21 21 22 24 26 25 26 27 24 24 28 25 25 27 30 31 30 29 27
20 20 21 18 11 10 14 16 18 19 27 33 33 30 25 21 16 16 15 14 15 16 17 19 20 21 22 22 21 20 19 19 19 19 18 17 17 18 14 13 12 13 12 10 10 9 9 8 8 8 8 8 8 11 12 14 14 14 14 14 15 14 14 16 16 17 18 19 21 21 23 25 22 21 20 21 21 27 26 26 29 29 28 27 26
20 21 18 16 13 15 22 25 23 26 34 34 28 23 20 16 16 16 14 15 17 18 18 19 19 19 20 21 19 18 17 17 17 17 17 16 16 17 16 12 13 12 11 11 10 10 10 10 8 10 9 8 10 12 12 14 16 16 15 16 16 16 16 17 16 16 17 17 18 17 19 22 21 21 20 15 19 21 33 23 23 24 26 24 26
19 19 17 13 13 21 27 28 26 25 29 30 26 25 25 18 14 12 14 15 17 18 17 18 18 19 20 19 18 17 17 17 17 18 18 17 17 16 16 14 14 12 11 10 12 9 9 10 11 9 11 11 11 12 14 14 16 16 18 17 17 17 17 17 16 17 18 18 17 18 15 17 18 20 19 18 18 24 23 22 21 23 21 19 21
16 15 14 13 14 27 31 24 18 17 20 25 23 22 22 10 8 10 13 15 16 18 18 19 19 19 19 19 18 18 18 18 17 18 18 18 18 17 17 17 15 14 13 12 12 12 11 10 12 11 10 11 12 13 16 14 15 19 15 17 17 16 18 18 18 20 18 17 17 18 18 18 18 20 19 19 19 20 26 14 17 19 19 19 19
14 14 13 14 23 24 15 17 17 16 18 20 21 18 19 9 9 10 13 15 17 17 19 19 19 19 19 19 19 19 18 18 17 18 18 17 17 16 17 17 17 16 15 14 13 12 12 12 12 13 12 11 13 15 16 14 16 16 17 19 17 16 17 15 18 19 18 15 19 20 20 19 19 20 19 19 20 19 23 21 14 17 18 22 18
13 14 13 17 19 12 13 17 17 17 16 15 16 15 15 7 7 13 14 17 19 20 19 19 18 19 19 19 19 19 18 18 18 18 17 16 16 16 17 18 17 17 16 16 15 14 14 13 13 13 14 14 14 16 17 15 16 18 16 19 16 20 15 16 15 19 17 19 18 21 20 22 21 20 21 20 20 20 21 21 20 20 20 22 25
13 15 13 15 11 12 12 15 18 18 17 14 17 17 15 9 12 14 16 19 22 21 19 17 17 18 19 18 19 19 18 19 19 18 nan 18 17 17 17 18 18 17 17 17 17 15 16 15 14 13 13 14 16 17 17 17 16 16 17 20 19 16 19 20 23 19 19 21 24 22 21 21 21 22 21 21 21 21 21 22 23 23 21 24 23
15 16 15 11 9 11 13 17 20 20 17 17 19 22 18 16 16 16 20 24 22 20 17 17 16 16 17 17 18 19 19 20 20 19 20 19 19 18 18 18 18 18 17 18 18 17 15 15 15 14 14 14 17 17 18 19 17 16 16 18 18 17 21 23 24 20 25 23 20 23 22 19 21 20 22 24 22 22 23 24 24 24 23 23 23
16 17 14 11 9 12 15 23 29 23 15 16 20 22 19 18 17 17 20 21 20 18 17 16 15 16 nan nan 18 19 21 20 20 20 nan 19 19 18 17 18 18 18 18 18 18 18 19 18 17 16 17 16 16 17 18 20 18 17 18 18 18 21 18 23 21 23 25 22 20 22 22 22 22 23 24 24 24 25 24 25 24 25 24 24 24
15 15 12 10 9 10 21 28 19 15 15 18 17 18 18 18 17 19 20 21 20 19 18 17 18 18 17 17 18 18 nan nan nan nan nan nan 19 18 17 nan nan nan nan 18 19 20 20 21 20 19 18 17 16 16 18 21 20 20 19 19 19 19 19 18 22 26 25 24 24 25 25 26 27 29 27 27 27 26 26 25 25 25 26 25 26
13 12 10 10 9 14 28 21 23 19 19 16 16 16 17 18 18 21 22 21 20 19 18 18 19 19 19 17 16 17 nan nan nan nan nan nan 19 19 nan nan nan nan nan nan nan 20 20 22 21 21 20 20 20 19 19 19 17 22 18 18 18 18 18 20 18 22 21 25 28 28 29 30 nan 31 nan nan nan nan nan 28 27 27 28 29 27
9 10 10 11 11 20 20 22 20 21 21 17 19 15 17 18 20 21 22 22 21 18 18 18 19 20 19 17 nan nan nan nan nan nan nan nan nan nan nan nan nan nan nan nan nan 21 22 21 21 21 21 21 21 20 20 20 19 21 19 20 19 19 20 20 21 18 23 26 28 28 28 nan nan nan nan nan nan nan nan nan nan nan nan nan nan
16 15 13 13 14 20 20 21 23 24 28 24 21 16 17 19 20 21 24 23 21 19 18 19 20 19 19 18 nan nan nan nan nan nan nan nan nan nan nan nan nan nan nan nan nan nan nan nan nan nan 21 21 22 22 22 22 22 21 21 20 20 20 21 22 22 23 24 25 26 27 26 nan nan nan nan nan nan nan nan nan nan nan nan nan nan
26 21 15 13 15 19 24 22 25 29 33 27 25 20 18 19 20 21 23 24 23 20 19 19 nan nan nan nan nan nan nan nan nan nan nan nan nan nan nan nan nan nan nan nan nan nan nan nan nan nan 22 22 23 23 23 22 21 22 nan nan nan nan nan 21 22 23 24 26 26 27 nan nan nan nan nan nan nan nan nan nan nan nan nan nan nan
Wind_Direction
293 293 294 291 290 288 288 290 289 289 292 294 293 294 296 297 301 305 309 313 315 314 313 310 308 304 303 302 298 296 295 298 301 301 303 311 315 314 315 317 318 318 317 319 316 309 306 303 302 301 299 295 292 292 290 292 283 275 262 265 279 283 292 291 290 283 283 277 270 267 264 260 253 248 235 225 217 210 205 195 216 nan nan nan nan
296 292 291 292 288 286 287 288 288 289 293 293 294 295 294 297 300 302 305 310 312 313 312 306 303 304 303 298 295 293 294 297 299 299 303 310 313 314 316 319 317 318 319 317 315 309 305 302 300 299 300 297 294 296 297 289 267 263 263 264 276 290 294 294 289 289 290 284 273 270 266 261 256 250 243 232 nan 212 nan 216 nan nan nan nan nan
292 290 290 291 287 285 287 289 289 289 289 290 292 293 293 296 299 302 304 307 310 312 309 305 304 304 300 295 293 292 293 295 296 296 300 307 312 316 318 319 319 321 319 315 312 308 307 303 303 301 301 302 299 297 293 292 274 266 269 263 263 278 289 290 293 296 298 301 298 282 274 265 259 253 241 233 228 223 221 224 nan nan nan nan nan
291 289 289 287 286 286 286 287 286 288 288 289 290 290 292 294 300 302 305 309 311 311 309 306 301 300 296 293 292 293 295 297 298 298 299 301 307 312 315 320 321 320 318 316 311 311 308 306 304 302 302 301 299 298 296 292 278 275 274 265 266 276 285 285 286 290 308 314 319 318 285 278 276 255 247 238 231 224 227 232 nan nan nan nan nan
288 287 286 287 288 286 285 285 285 289 288 289 290 290 292 294 299 301 304 308 310 310 307 304 301 297 295 293 293 294 296 297 297 299 298 302 306 311 317 319 316 315 315 313 313 311 311 305 302 299 301 301 300 299 292 289 287 277 276 273 273 278 283 286 293 309 311 343 348 10 278 274 273 263 256 246 234 228 228 232 nan nan nan nan nan
286 286 286 287 288 287 284 285 286 288 288 289 290 291 293 294 297 300 303 305 307 307 303 299 296 294 293 292 293 295 295 296 296 299 300 303 308 310 312 312 311 315 316 314 311 310 306 305 302 300 299 300 299 295 287 290 288 278 279 276 279 284 289 290 302 322 342 346 33 301 281 277 275 277 265 261 241 230 225 224 227 221 nan nan nan
286 285 286 288 286 288 287 286 287 288 290 291 293 294 295 297 299 302 303 303 304 305 299 294 293 292 292 294 295 294 294 295 296 299 299 300 301 306 314 316 317 316 312 313 312 309 308 305 301 301 300 299 295 290 289 289 285 279 280 279 282 290 292 290 315 338 349 10 289 288 283 277 281 276 278 255 245 236 230 227 225 221 219 nan nan
285 285 287 288 289 289 288 288 289 290 291 295 297 297 298 300 302 303 303 302 301 301 299 293 291 291 291 291 292 292 292 293 295 295 293 295 302 307 304 312 313 314 312 310 309 308 305 303 301 300 301 299 294 290 291 285 278 277 279 279 280 285 285 296 308 355 15 352 306 295 289 274 275 277 265 263 255 243 237 236 231 221 nan nan nan
286 289 289 289 289 292 289 289 290 292 295 298 300 301 303 304 304 304 303 302 299 299 298 293 289 286 285 287 288 287 287 288 287 288 287 290 286 286 291 296 305 305 306 303 303 304 302 303 301 301 301 297 292 289 284 280 278 279 279 270 267 276 287 300 353 3 4 300 307 301 292 292 279 274 275 273 266 242 233 254 258 237 nan nan nan
287 289 289 290 290 290 290 290 292 295 298 300 302 305 306 307 306 304 302 301 298 296 295 291 285 283 281 280 276 276 276 277 279 280 279 280 283 289 293 297 301 304 302 299 301 301 297 297 301 303 301 298 294 284 270 265 262 262 262 259 266 266 275 305 348 27 305 314 290 269 238 173 278 269 273 268 257 245 238 225 222 220 nan nan nan
287 288 290 289 292 289 290 291 294 298 299 301 304 306 307 307 307 304 300 299 296 293 289 286 281 279 278 275 274 276 277 284 283 276 274 280 282 286 290 292 295 296 294 292 293 293 294 293 291 292 292 289 284 280 271 265 254 250 251 258 268 267 279 341 23 289 288 287 291 293 273 222 262 265 279 273 261 251 238 234 234 240 nan nan nan
288 289 289 288 288 288 290 292 296 300 303 306 308 307 306 306 307 302 300 298 294 290 286 282 278 275 274 269 268 271 275 276 275 277 277 277 281 284 286 285 285 282 282 282 284 284 278 280 290 295 295 292 287 281 278 271 256 244 241 251 259 272 280 352 39 281 296 281 285 299 307 288 272 274 287 274 269 259 253 248 242 239 235 nan nan
290 289 287 290 291 291 294 297 301 304 306 308 308 306 303 302 302 300 298 294 289 289 286 280 274 270 270 270 266 266 269 272 274 277 275 280 284 284 283 282 280 279 279 280 282 283 283 286 290 293 294 290 288 282 275 268 252 236 231 240 247 259 285 99 304 289 281 286 291 292 277 265 260 271 268 273 270 265 259 251 245 239 nan nan nan
290 288 290 293 294 297 297 299 300 303 305 306 307 305 303 302 300 296 295 292 288 286 282 275 268 266 265 263 261 260 262 266 271 271 275 279 283 282 280 280 278 279 279 280 281 284 287 287 284 287 289 291 285 274 266 257 246 235 231 229 239 257 284 304 145 276 275 281 276 272 278 278 269 258 263 262 265 269 260 256 251 244 239 nan nan
288 290 292 294 298 301 300 300 302 304 305 305 304 303 299 298 296 291 289 285 284 281 275 268 264 260 260 260 257 258 259 264 267 269 272 276 279 280 280 278 278 279 281 283 284 286 288 285 283 278 277 279 273 269 259 257 248 238 232 228 234 251 300 282 273 273 274 274 285 294 280 273 273 268 256 252 256 257 259 254 246 238 231 230 236
290 290 291 293 297 299 302 302 304 304 304 305 302 299 295 293 291 284 278 278 279 272 264 261 261 257 257 257 255 254 258 262 264 266 269 273 276 277 278 281 281 282 285 287 286 286 284 283 279 278 276 271 270 268 259 256 252 243 234 233 237 247 245 193 260 266 267 273 269 266 272 274 252 277 261 250 250 251 253 254 246 239 nan 228 229
294 293 294 296 298 302 304 305 306 305 304 302 297 291 288 288 284 279 283 275 272 270 264 261 256 252 254 255 253 252 256 260 263 267 271 274 276 278 280 282 284 285 288 286 286 285 283 281 280 278 275 272 270 265 258 246 248 244 237 230 241 252 218 206 258 262 262 260 268 271 274 287 266 264 267 258 253 252 245 244 243 248 246 236 230
300 298 295 297 303 306 308 308 308 308 306 302 295 297 298 290 287 285 281 274 274 266 261 256 252 253 253 251 250 251 255 259 261 264 268 268 273 277 280 283 283 285 286 286 286 286 284 281 277 275 272 271 267 263 257 246 243 242 239 235 242 245 232 220 259 258 261 268 264 265 268 260 256 280 279 271 259 249 243 242 245 241 238 nan nan
287 295 300 300 301 308 309 310 311 313 309 297 295 298 294 294 302 297 284 275 268 260 256 255 256 254 253 250 249 252 258 263 263 263 264 270 275 279 281 282 281 283 285 287 288 287 283 281 278 273 271 269 266 261 257 250 243 237 236 237 246 245 237 235 262 261 265 267 263 264 263 262 250 281 279 274 264 255 248 244 247 249 245 239 235
294 294 301 305 310 310 306 305 311 309 310 302 294 298 303 299 302 292 274 268 265 258 255 255 254 252 250 248 249 254 260 261 268 267 269 273 280 279 280 279 282 284 286 287 288 287 284 282 280 278 274 271 268 263 258 252 244 238 232 234 243 254 249 247 252 260 260 254 256 261 266 261 273 282 283 281 274 262 254 249 248 242 244 242 228
298 303 304 304 303 302 304 306 309 299 288 293 295 304 304 299 293 285 283 274 265 257 252 251 250 250 247 247 253 253 253 256 265 267 277 275 270 273 278 280 283 286 288 289 289 288 287 286 282 280 279 279 274 269 261 255 247 240 235 232 242 250 247 246 253 254 256 264 264 262 266 262 277 279 281 283 279 272 265 260 250 244 245 241 234
298 298 300 298 297 299 306 303 297 292 295 286 292 298 290 278 275 279 271 267 260 251 250 252 253 246 245 248 249 250 248 257 261 269 267 272 275 274 279 283 285 287 287 288 287 287 286 283 281 279 279 284 289 278 273 265 252 242 243 233 237 246 250 252 250 256 255 258 259 267 267 263 272 274 274 273 275 276 278 264 259 251 248 240 237
295 295 294 297 299 299 303 287 291 298 294 284 275 265 262 265 282 278 263 259 257 261 268 269 260 248 237 244 252 256 264 257 264 263 265 271 270 277 281 285 287 287 288 287 287 286 284 280 278 278 280 291 291 269 264 264 255 252 246 245 244 243 251 253 253 252 258 253 259 272 271 266 273 274 271 271 275 276 273 267 263 256 247 242 241
295 295 298 301 306 306 295 304 307 301 289 277 272 269 261 259 245 246 254 259 262 263 271 268 257 252 249 251 260 267 271 273 267 276 280 277 274 273 275 277 281 290 293 293 291 288 286 282 281 282 286 281 267 267 262 259 253 247 247 247 247 247 252 255 254 255 254 261 261 275 274 269 264 271 270 271 271 274 273 271 267 261 253 246 246
295 298 302 308 312 306 309 308 305 299 283 274 275 268 266 263 264 255 247 249 249 253 254 254 244 248 258 255 268 267 270 262 264 269 266 273 280 286 286 287 289 291 299 292 293 289 296 289 285 288 270 261 258 252 249 255 248 242 242 247 247 250 249 254 254 255 258 259 262 273 274 268 263 265 274 273 268 267 268 273 271 263 251 255 252
298 302 303 307 312 314 314 307 307 294 286 276 273 270 272 272 272 263 252 253 251 248 250 246 242 250 262 267 250 256 253 254 264 272 270 266 285 284 284 284 292 291 295 290 286 287 289 283 280 274 266 260 254 249 244 243 248 240 240 247 251 248 248 254 257 255 255 257 264 271 270 267 264 258 273 271 267 265 267 268 272 268 261 260 258
296 296 296 305 311 313 317 304 297 293 294 284 276 275 275 278 276 266 260 252 247 248 252 251 250 257 258 254 249 252 254 260 265 268 277 281 282 283 287 291 292 292 286 283 284 284 282 283 281 275 266 263 263 257 248 245 235 239 242 245 251 255 250 251 254 258 258 258 264 272 269 267 264 256 268 269 269 266 265 265 267 267 266 264 264
294 299 300 305 312 312 316 313 297 287 285 283 280 275 276 278 274 264 253 249 243 250 259 257 255 255 260 249 247 254 265 277 276 284 278 281 288 288 291 291 291 292 289 288 289 287 287 284 280 274 271 264 262 258 247 241 244 235 238 243 250 251 253 251 255 254 258 261 264 271 272 268 267 258 258 269 270 267 267 268 267 267 264 260 267
308 308 305 309 310 305 312 307 297 285 281 280 278 275 274 271 266 258 251 248 247 253 256 254 249 248 246 257 260 259 255 258 281 281 286 281 286 288 291 293 294 292 293 293 291 290 285 281 278 274 266 259 255 255 251 243 240 241 239 244 248 254 254 251 254 257 258 258 264 271 275 273 269 264 262 266 270 269 270 269 267 267 264 266 264
311 304 305 308 305 302 304 306 293 282 280 276 272 269 269 262 249 246 246 255 262 261 257 249 247 247 248 247 249 247 248 265 269 283 296 295 298 296 298 299 297 298 300 300 298 292 285 280 278 272 267 257 253 247 243 246 240 240 239 240 248 248 253 252 255 256 258 258 260 267 276 273 268 269 258 262 270 271 272 273 270 271 269 266 263
313 308 305 310 309 300 300 302 284 276 277 275 269 265 263 255 240 242 251 261 268 265 257 252 250 249 250 249 245 245 252 253 261 272 272 281 290 296 297 294 297 300 304 303 298 293 285 279 273 272 269 264 247 251 247 247 242 246 243 240 244 246 249 249 249 252 255 259 259 263 269 273 271 267 265 260 264 271 272 275 273 272 275 270 269
309 312 311 312 313 302 299 298 276 269 273 269 266 264 261 255 248 244 250 255 260 259 256 253 251 251 251 254 251 253 255 262 269 275 279 282 287 288 287 291 293 297 301 299 298 291 286 279 273 267 263 265 262 256 252 245 242 239 243 242 244 246 247 248 245 251 249 252 254 258 262 265 269 267 265 265 266 263 261 266 275 272 275 277 271
303 312 314 314 313 301 295 290 283 274 270 263 264 260 251 251 246 246 245 246 249 247 246 244 249 252 256 266 271 273 268 271 274 276 278 276 276 278 284 285 290 292 294 294 293 292 288 283 279 268 271 267 261 262 256 249 248 243 240 246 243 244 246 246 245 245 247 251 254 255 261 264 264 267 267 268 269 266 264 256 272 271 269 272 273
304 315 319 320 316 299 285 285 282 277 265 261 260 262 248 233 229 224 234 234 233 236 243 248 255 263 277 277 277 274 275 273 276 275 273 273 278 280 281 286 287 289 289 289 291 287 286 286 277 273 270 265 267 266 267 266 259 258 252 248 246 240 236 242 247 247 246 246 252 253 256 260 264 261 266 268 269 268 264 262 270 270 268 265 270
299 311 322 319 308 293 288 287 284 276 264 261 262 257 253 221 212 213 222 221 229 241 259 270 275 276 278 277 276 274 276 277 272 275 273 280 285 282 285 285 285 286 284 286 286 286 286 281 275 276 273 269 272 273 274 274 273 269 261 250 255 255 254 250 248 244 249 249 245 254 253 255 263 272 266 265 267 263 266 264 268 271 270 267 267
313 317 320 315 299 289 295 294 295 277 252 247 252 242 237 241 236 230 227 228 243 266 275 281 278 278 277 273 271 272 273 273 275 275 274 274 277 275 275 272 277 280 276 276 288 290 282 278 268 259 265 277 283 285 282 281 279 273 267 260 259 259 263 262 260 258 251 249 254 251 252 253 253 251 249 263 261 264 269 265 263 266 268 269 269
326 325 325 318 302 282 307 300 291 268 245 241 243 244 239 233 229 232 249 263 268 272 277 279 280 278 274 270 271 271 270 270 269 268 267 266 268 276 268 270 272 268 277 276 278 273 279 280 274 266 273 282 290 291 284 280 281 281 278 273 266 262 259 255 257 254 256 256 255 259 257 253 254 255 258 252 270 268 269 268 261 260 262 265 270
317 319 320 320 310 291 293 285 267 251 233 233 230 223 222 225 222 247 262 274 280 277 276 278 276 275 273 270 271 271 270 270 268 268 266 267 273 266 265 268 270 276 277 282 276 277 271 264 266 267 263 263 272 273 281 283 284 281 284 283 278 270 269 264 258 256 256 260 259 256 256 257 255 259 257 255 255 270 270 257 256 260 262 266 268
304 312 309 310 304 288 282 270 259 242 232 233 238 240 232 222 237 254 265 271 270 270 273 272 268 267 265 266 265 266 268 271 272 274 275 275 273 284 287 281 278 275 273 274 272 274 272 272 261 266 263 259 249 261 263 272 277 285 286 285 282 280 275 270 268 262 262 260 262 261 261 260 256 257 259 257 256 258 259 264 269 265 268 268 268
298 299 299 298 292 285 269 256 251 250 243 239 236 237 229 208 250 257 259 261 264 265 265 261 260 258 258 262 266 269 273 275 277 277 278 277 277 278 278 279 274 275 276 275 279 274 273 277 273 261 262 261 264 262 270 273 278 284 283 280 282 284 284 280 276 272 269 266 265 262 262 264 263 258 260 257 257 259 265 266 261 266 264 266 266
291 289 288 280 282 262 246 242 257 265 245 245 246 239 233 215 253 253 251 255 254 256 253 252 252 253 257 263 266 269 273 274 276 280 281 282 281 281 282 278 276 272 270 268 267 274 274 267 268 259 264 263 268 263 264 266 283 279 277 288 289 284 287 290 287 276 267 268 269 271 263 265 263 265 259 258 258 260 278 266 277 274 269 265 273
277 271 271 270 266 270 251 244 250 254 247 246 249 230 227 226 268 257 249 252 253 254 253 253 254 257 262 264 267 269 272 274 274 273 274 276 279 280 280 280 279 278 277 279 282 280 276 276 270 273 263 262 261 265 262 265 283 286 292 292 274 285 279 276 280 279 279 278 277 276 275 270 268 264 262 264 258 258 271 286 279 272 274 286 281
265 260 254 262 269 264 234 242 244 256 259 252 243 224 212 239 278 260 254 250 244 244 249 252 259 264 264 267 270 274 276 275 275 275 273 272 274 277 278 278 276 278 279 277 277 277 277 271 271 268 269 269 264 267 269 263 264 272 272 268 280 281 273 274 274 280 278 275 276 272 271 272 266 266 265 260 259 255 258 260 265 268 273 264 269
247 249 248 259 268 255 244 241 244 251 252 233 226 220 237 284 277 262 252 251 251 249 252 256 259 265 266 266 269 271 271 275 278 278 nan 273 273 273 275 277 276 274 274 275 276 277 279 281 278 276 275 274 274 269 267 271 266 270 281 282 285 289 295 297 285 268 268 260 254 253 259 259 262 263 263 262 260 260 257 256 255 260 254 261 267
240 244 239 242 235 251 253 258 252 242 230 227 225 234 259 285 277 263 255 253 254 254 255 256 257 260 265 267 270 269 270 270 270 269 270 271 270 271 275 277 276 274 273 274 273 272 275 276 275 272 270 265 273 271 270 268 270 262 254 270 276 283 267 271 278 273 258 257 257 264 263 264 268 269 268 265 265 262 257 257 259 257 256 255 259
233 232 226 229 228 236 250 252 233 214 223 232 231 244 268 278 275 269 263 257 257 256 256 259 262 260 nan nan 267 266 266 265 266 266 nan 265 266 267 270 277 278 277 275 274 274 273 272 270 269 271 269 266 263 273 272 270 265 264 262 259 254 260 268 277 281 275 268 266 267 262 261 269 273 269 265 263 262 264 265 267 265 264 261 261 259
230 225 219 225 233 247 255 243 241 238 235 227 244 253 270 272 274 266 258 256 255 251 251 255 257 260 260 263 265 263 nan nan nan nan nan nan 265 267 270 nan nan nan nan 275 273 272 271 270 269 267 265 265 266 270 270 273 274 271 267 260 261 261 261 265 269 275 271 265 267 267 263 257 250 255 257 259 260 260 260 262 263 263 263 261 262
227 229 231 234 244 254 250 238 229 239 243 240 263 264 267 268 267 260 258 256 255 257 261 258 258 260 261 264 268 267 nan nan nan nan nan nan 268 270 nan nan nan nan nan nan nan 273 272 272 268 269 269 267 263 263 268 269 266 271 268 270 268 265 266 271 273 266 274 275 272 265 264 263 nan 260 nan nan nan nan nan 257 256 261 261 259 260
222 233 240 244 247 258 261 256 244 248 240 250 268 273 263 262 262 262 263 257 259 260 260 263 263 261 262 259 nan nan nan nan nan nan nan nan nan nan nan nan nan nan nan nan nan 275 271 271 274 272 270 270 268 266 265 266 267 267 274 272 270 268 269 267 265 263 264 272 270 269 270 nan nan nan nan nan nan nan nan nan nan nan nan nan nan
272 258 242 240 245 256 259 258 262 258 245 241 253 257 255 257 258 261 265 262 259 258 259 262 263 260 257 257 nan nan nan nan nan nan nan nan nan nan nan nan nan nan nan nan nan nan nan nan nan nan 273 274 274 270 267 270 269 266 265 266 265 265 264 265 265 265 258 255 266 267 265 nan nan nan nan nan nan nan nan nan nan nan nan nan nan
283 280 258 250 249 253 264 258 253 247 236 229 239 240 238 247 253 261 264 265 265 264 264 263 nan nan nan nan nan nan nan nan nan nan nan nan nan nan nan nan nan nan nan nan nan nan nan nan nan nan 270 272 274 272 273 270 270 266 nan nan nan nan nan 256 258 260 261 265 267 268 nan nan nan nan nan nan nan nan nan nan nan nan nan nan nan